[[{"header":{"parameterUnit":"m.s-1","parameterCategory":1,"la1":30.2991,"la2":30.254,"lo1":-89.0895,"lo2":-89.0444,"dy":0.0017,"dx":0.0017,"nx":28,"ny":28,"refTime":"2024-07-06T03:00:00:Z","depth":0,"parameterNumber":2,"parameterNumberName":"U-component_of_WINDS"},"data":[0,0,0,0,0,0,0,0,0,0,0,0,0,0,0,0,0,0,0,0,0,0,0,0,0,0,0,0,0,0,0,0,0,0,0,0,0,0,0,0,0,0,0,0,0,0,0,0,0,0,0,0,0,0,0,0,0,0,1.6233,1.6233,0,1.6248,1.6248,1.6248,1.6236,1.6235,1.6235,1.6234,1.6251,1.6252,1.6253,0,0,0,0,0,0,0,0,0,0,0,0,0,1.6197,1.6197,1.6233,1.6233,1.6234,1.6248,1.6248,1.6248,1.6236,1.6235,1.6234,1.6234,1.6251,1.6252,1.6253,0,0,0,0,0,0,0,0,0,0,0,0,0,1.6212,1.6198,1.6233,1.6229,1.6229,1.6248,1.6248,1.6248,1.6236,1.6235,1.6234,1.6233,1.625,1.6252,1.6253,1.6278,0,0,1.6257,1.6258,0,0,0,0,0,0,0,0,1.6211,1.6213,1.6229,1.6229,1.6229,1.6239,1.6241,1.6258,1.6236,1.6233,1.6234,1.6233,1.6248,1.6249,1.6254,1.6278,1.6279,1.6257,1.6258,1.6259,1.6259,0,0,0,0,0,0,0,1.621,1.6213,1.6239,1.623,1.6229,1.6227,1.6228,1.6245,1.6245,1.6233,1.6232,1.6234,1.6248,1.6253,1.6254,1.6279,1.6257,1.6259,1.626,1.626,1.6326,1.6327,0,0,0,0,0,0,1.6209,1.6212,1.6239,1.6239,1.6218,1.6228,1.623,1.6237,1.6245,1.6245,1.6235,1.6234,1.6251,1.6253,1.6255,1.6284,1.6259,1.626,1.6261,1.6325,1.6327,1.6328,0,0,0,0,0,0,1.6208,1.6212,1.6238,1.6225,1.6229,1.623,1.6238,1.6237,1.6242,1.6246,1.6246,1.624,1.625,1.6253,1.6272,1.6285,1.6261,1.6262,1.6324,1.6326,1.6327,1.6344,0,0,0,0,0,0,1.6207,1.6211,1.622,1.6226,1.6229,1.6254,1.6238,1.6238,1.6245,1.6243,1.625,1.6251,1.625,1.627,1.6274,1.6286,1.6263,1.6323,1.6325,1.6327,1.6342,1.6345,1.6348,0,0,0,0,0,1.6206,1.6224,1.6221,1.6224,1.624,1.6255,1.6257,1.6255,1.6246,1.6255,1.6257,1.6251,1.6283,1.6272,1.6276,1.6289,1.6322,1.6325,1.6326,1.6341,1.6345,1.6348,0,0,0,0,0,0,1.622,1.6225,1.6221,1.6241,1.6248,1.6253,1.6264,1.6259,1.6269,1.6267,1.6264,1.6266,1.6287,1.629,1.6278,1.6314,1.6301,1.6304,1.6311,1.6315,1.6318,1.6316,1.6264,0,0,0,0,0,1.6226,1.6237,1.6241,1.6258,1.6262,1.6263,1.6269,1.6267,1.6274,1.6277,1.628,1.6288,1.63,1.6308,1.6319,1.6343,1.6345,1.6354,1.6358,1.636,1.6362,1.6376,1.638,1.6334,1.6334,1.6334,0,0,1.6237,1.6241,1.6248,1.6261,1.6266,1.6278,1.6265,1.6278,1.6288,1.6279,1.6297,1.6301,1.6309,1.6331,1.6341,1.6334,1.6376,1.6363,1.6365,1.6366,1.6379,1.6383,1.6387,1.6336,1.6335,1.6335,0,0,1.6263,1.6268,1.6283,1.6288,1.6296,1.6297,1.63,1.6307,1.6308,1.6327,1.6321,1.6333,1.6353,1.636,1.6366,1.6397,1.6391,1.6401,1.6417,1.6431,1.6434,1.6437,1.6448,1.6453,1.6403,1.6403,1.6403,0,1.6276,1.6294,1.6292,1.6306,1.6312,1.6305,1.6321,1.6326,1.6338,1.6343,1.6335,1.6362,1.6367,1.6391,1.6398,1.6404,1.6408,1.6399,1.6434,1.6437,1.644,1.6451,1.6455,1.6405,1.6404,1.6404,1.6404,0,1.631,1.6322,1.6334,1.6345,1.6353,1.6368,1.6368,1.6377,1.6375,1.6377,1.6396,1.6403,1.6415,1.6421,1.6419,1.6445,1.6441,1.6434,1.6421,1.6445,1.6455,1.6459,1.6406,1.6406,1.6405,1.6405,0,0,1.6343,1.6354,1.6358,1.6363,1.6372,1.6382,1.6398,1.641,1.6417,1.6426,1.6439,1.6458,1.6452,1.6459,1.6458,1.647,1.6494,1.6461,1.6462,1.6467,1.6524,1.6528,1.6533,1.6492,1.6492,1.6493,1.6523,0,1.637,1.6396,1.6395,1.642,1.6432,1.6426,1.644,1.6447,1.645,1.6461,1.6465,1.6478,1.6469,1.6473,1.6485,1.6489,1.6506,1.6487,1.6504,1.6505,1.6501,1.6538,1.6542,1.657,1.6527,1.6528,1.6528,0,1.6404,1.6413,1.6439,1.6447,1.6452,1.6464,1.6476,1.6487,1.6496,1.6497,1.6506,1.6503,1.652,1.6508,1.6532,1.6519,1.6527,1.653,1.6531,1.6531,1.6517,1.6539,1.6579,1.6583,1.6534,1.6534,1.6533,0,1.6425,1.6445,1.6463,1.6468,1.6478,1.6487,1.6491,1.65,1.6507,1.6518,1.6523,1.6536,1.6543,1.6554,1.6556,1.6546,1.658,1.6567,1.6582,1.6582,1.6588,1.6587,1.6629,1.6594,1.6594,1.6594,1.6594,0,1.6454,1.647,1.6473,1.6484,1.6502,1.6502,1.652,1.6524,1.6532,1.6544,1.6541,1.6553,1.6555,1.6568,1.657,1.6589,1.6593,1.6595,1.6595,1.6594,1.6594,1.6598,1.6596,1.6595,1.6595,1.6595,1.6594,0,1.6481,1.6483,1.6502,1.6511,1.6513,1.6526,1.6534,1.6545,1.6548,1.6564,1.6568,1.6573,1.6588,1.6591,1.6609,1.661,1.6634,1.6632,1.663,1.663,1.6644,1.6642,1.6689,1.6695,1.6657,1.6657,1.6658,0,1.6498,1.651,1.652,1.6528,1.6533,1.6546,1.6554,1.6556,1.6564,1.6577,1.6587,1.6601,1.6613,1.6637,1.6643,1.6657,1.6656,1.6672,1.6658,1.6657,1.6656,1.6654,1.6656,1.6674,1.6674,1.6674,1.6675,0,1.653,1.6531,1.6542,1.6554,1.6564,1.6574,1.6583,1.659,1.6593,1.6603,1.6618,1.6628,1.6646,1.6661,1.6676,1.6682,1.6679,1.6679,1.6683,1.6682,1.668,1.6681,1.6636,1.6678,1.6677,1.6677,1.6677,1.6677,1.6552,1.6562,1.6571,1.6584,1.6592,1.6601,1.6612,1.6617,1.6629,1.6644,1.6645,1.6662,1.6672,1.6691,1.6698,1.6712,1.6707,1.6713,1.6715,1.6716,1.6717,1.6679,1.6715,1.6715,1.6715,1.6715,1.6715,0,1.6582,1.6588,1.66,1.6614,1.6624,1.6621,1.6632,1.6641,1.6656,1.6666,1.6678,1.6696,1.6711,1.6718,1.6734,1.6743,1.6742,1.6747,1.6746,1.6747,1.672,1.6715,1.6747,1.6747,1.6747,1.6747,1.6747,1.6747,1.6599,1.6617,1.6619,1.6642,1.6648,1.6664,1.667,1.6679,1.6687,1.6707,1.672,1.6725,1.6734,1.675,1.6764,1.6766,1.6772,1.6777,1.6778,1.6753,1.6749,1.6746,1.6741,1.6778,1.6778,1.6804,1.6804,1.6804]},{"header":{"parameterUnit":"m.s-1","parameterCategory":1,"la1":30.2991,"la2":30.254,"lo1":-89.0895,"lo2":-89.0444,"dy":0.0017,"dx":0.0017,"nx":28,"ny":28,"refTime":"2024-07-06T03:00:00:Z","depth":0,"parameterNumber":3,"parameterNumberName":"V-component_of_WINDS"},"data":[0,0,0,0,0,0,0,0,0,0,0,0,0,0,0,0,0,0,0,0,0,0,0,0,0,0,0,0,0,0,0,0,0,0,0,0,0,0,0,0,0,0,0,0,0,0,0,0,0,0,0,0,0,0,0,0,0,0,-0.553,-0.553,0,-0.5533,-0.5533,-0.5533,-0.5627,-0.5629,-0.5631,-0.5634,-0.5632,-0.5629,-0.5627,0,0,0,0,0,0,0,0,0,0,0,0,0,-0.5601,-0.5599,-0.553,-0.553,-0.553,-0.5533,-0.5533,-0.5533,-0.5626,-0.5629,-0.5632,-0.5635,-0.5632,-0.563,-0.5627,0,0,0,0,0,0,0,0,0,0,0,0,0,-0.5583,-0.5598,-0.553,-0.5577,-0.5581,-0.5533,-0.5533,-0.5533,-0.5625,-0.5629,-0.5633,-0.5636,-0.5633,-0.563,-0.5626,-0.5532,0,0,-0.5616,-0.5614,0,0,0,0,0,0,0,0,-0.5584,-0.5581,-0.557,-0.5574,-0.5578,-0.5583,-0.5558,-0.5533,-0.5625,-0.5608,-0.5634,-0.5638,-0.5612,-0.5611,-0.5603,-0.5532,-0.5532,-0.5615,-0.5613,-0.5612,-0.5611,0,0,0,0,0,0,0,-0.5585,-0.5581,-0.5531,-0.557,-0.5575,-0.5597,-0.5598,-0.5553,-0.559,-0.561,-0.5617,-0.5616,-0.5615,-0.5606,-0.5604,-0.5532,-0.5616,-0.5612,-0.561,-0.5609,-0.5386,-0.5383,0,0,0,0,0,0,-0.5581,-0.5581,-0.5531,-0.5531,-0.559,-0.5592,-0.5594,-0.5578,-0.5591,-0.5596,-0.5613,-0.5621,-0.561,-0.5608,-0.5604,-0.5496,-0.5612,-0.5609,-0.5607,-0.539,-0.5385,-0.5381,0,0,0,0,0,0,-0.5582,-0.5575,-0.5531,-0.5558,-0.5554,-0.5587,-0.5568,-0.5576,-0.5567,-0.5593,-0.5599,-0.5598,-0.5613,-0.5609,-0.555,-0.5497,-0.5607,-0.5604,-0.5395,-0.5389,-0.5383,-0.5278,0,0,0,0,0,0,-0.5583,-0.5575,-0.554,-0.5557,-0.5553,-0.5478,-0.5565,-0.5574,-0.5562,-0.5572,-0.558,-0.5585,-0.5616,-0.5555,-0.5547,-0.5494,-0.5601,-0.5399,-0.5392,-0.5385,-0.5286,-0.5269,-0.5255,0,0,0,0,0,-0.5586,-0.5509,-0.5538,-0.5531,-0.551,-0.5474,-0.5472,-0.551,-0.5557,-0.5522,-0.5539,-0.5585,-0.5505,-0.5548,-0.554,-0.5485,-0.5403,-0.5394,-0.5386,-0.5293,-0.5273,-0.5255,0,0,0,0,0,0,-0.5482,-0.5512,-0.5544,-0.5471,-0.547,-0.549,-0.5447,-0.5487,-0.5471,-0.548,-0.5527,-0.5529,-0.5463,-0.5468,-0.5516,-0.5396,-0.5462,-0.5451,-0.5395,-0.5375,-0.536,-0.5359,-0.5598,0,0,0,0,0,-0.5451,-0.5421,-0.5448,-0.5381,-0.5379,-0.5413,-0.5399,-0.5429,-0.5429,-0.5428,-0.5441,-0.5438,-0.5413,-0.5394,-0.5372,-0.5288,-0.5292,-0.5247,-0.5231,-0.5218,-0.5208,-0.5166,-0.5146,-0.5353,-0.5353,-0.5353,0,0,-0.5386,-0.5398,-0.5376,-0.536,-0.5363,-0.533,-0.5412,-0.5373,-0.5349,-0.5422,-0.5368,-0.5377,-0.5377,-0.5306,-0.5275,-0.5309,-0.5152,-0.5207,-0.5196,-0.5193,-0.5155,-0.5135,-0.5118,-0.5347,-0.5348,-0.5349,0,0,-0.525,-0.5257,-0.5202,-0.5204,-0.5209,-0.5232,-0.5219,-0.5234,-0.5244,-0.5192,-0.5246,-0.5218,-0.5173,-0.5171,-0.5164,-0.5031,-0.5073,-0.5023,-0.494,-0.4898,-0.4882,-0.4868,-0.4821,-0.4803,-0.5013,-0.5012,-0.5012,0,-0.5168,-0.5122,-0.5168,-0.5127,-0.5119,-0.5187,-0.5132,-0.5131,-0.5126,-0.5118,-0.5157,-0.5103,-0.5108,-0.5038,-0.5006,-0.4998,-0.4984,-0.5021,-0.4881,-0.4867,-0.4854,-0.481,-0.4793,-0.5006,-0.5007,-0.5008,-0.5008,0,-0.5022,-0.4989,-0.4944,-0.4942,-0.4929,-0.488,-0.4918,-0.4899,-0.4931,-0.4951,-0.4897,-0.4905,-0.4887,-0.4873,-0.4902,-0.4808,-0.4829,-0.4873,-0.494,-0.4828,-0.4787,-0.4771,-0.4998,-0.5,-0.5002,-0.5003,0,0,-0.4818,-0.4845,-0.4827,-0.4828,-0.4839,-0.4814,-0.477,-0.4754,-0.4737,-0.4733,-0.4696,-0.4658,-0.47,-0.4692,-0.4723,-0.4686,-0.4582,-0.4736,-0.4736,-0.4707,-0.4479,-0.4445,-0.4425,-0.461,-0.4607,-0.4605,-0.4479,0,-0.4688,-0.4615,-0.4656,-0.4577,-0.4548,-0.4613,-0.4575,-0.4577,-0.4595,-0.4572,-0.4591,-0.4564,-0.4621,-0.4617,-0.4584,-0.4601,-0.4537,-0.4611,-0.4576,-0.4574,-0.4574,-0.4404,-0.4367,-0.4248,-0.4463,-0.4461,-0.4459,0,-0.4525,-0.4517,-0.4436,-0.4455,-0.4444,-0.4409,-0.4399,-0.4377,-0.4381,-0.4397,-0.439,-0.443,-0.4387,-0.4454,-0.4396,-0.4446,-0.4434,-0.4441,-0.4438,-0.4435,-0.4509,-0.4397,-0.4211,-0.4193,-0.4434,-0.4436,-0.4438,0,-0.4386,-0.4354,-0.4302,-0.4301,-0.4321,-0.4295,-0.4302,-0.4311,-0.43,-0.4291,-0.4284,-0.4269,-0.4261,-0.4248,-0.4284,-0.4329,-0.4221,-0.4291,-0.4232,-0.4231,-0.4205,-0.4206,-0.4015,-0.4198,-0.4198,-0.4198,-0.4199,0,-0.4236,-0.4183,-0.424,-0.4208,-0.4152,-0.42,-0.4142,-0.4156,-0.4164,-0.4135,-0.419,-0.4161,-0.421,-0.4186,-0.4213,-0.4161,-0.4156,-0.4167,-0.4175,-0.4162,-0.4161,-0.4155,-0.4164,-0.4194,-0.4195,-0.4196,-0.4196,0,-0.4069,-0.4106,-0.4053,-0.4079,-0.4084,-0.4042,-0.4063,-0.4034,-0.4057,-0.402,-0.4014,-0.4048,-0.4024,-0.4058,-0.4036,-0.4054,-0.3983,-0.4004,-0.3982,-0.3988,-0.3928,-0.3933,-0.3726,-0.3701,-0.3899,-0.3897,-0.3896,0,-0.3971,-0.3933,-0.3956,-0.3942,-0.3947,-0.3923,-0.3913,-0.3959,-0.3946,-0.395,-0.392,-0.3901,-0.3888,-0.3845,-0.3867,-0.3851,-0.3871,-0.38,-0.3869,-0.3858,-0.3871,-0.3873,-0.3869,-0.3785,-0.3783,-0.3781,-0.3779,0,-0.3793,-0.3814,-0.3798,-0.3789,-0.3777,-0.3771,-0.377,-0.3755,-0.3804,-0.3786,-0.3763,-0.3753,-0.3733,-0.3712,-0.3703,-0.3709,-0.3752,-0.3758,-0.3744,-0.373,-0.3719,-0.3725,-0.3944,-0.3762,-0.3764,-0.3765,-0.3766,-0.3767,-0.3658,-0.3628,-0.364,-0.3621,-0.3626,-0.3624,-0.3599,-0.362,-0.3603,-0.3591,-0.3619,-0.3589,-0.3597,-0.3589,-0.3591,-0.3567,-0.3598,-0.3577,-0.3572,-0.3566,-0.3557,-0.3724,-0.3566,-0.3566,-0.3567,-0.3567,-0.3567,0,-0.3483,-0.3495,-0.3478,-0.3476,-0.3461,-0.3506,-0.3508,-0.3492,-0.3466,-0.347,-0.3457,-0.3431,-0.3412,-0.3435,-0.342,-0.3398,-0.3417,-0.3392,-0.3394,-0.3395,-0.353,-0.3544,-0.3377,-0.3377,-0.3377,-0.3377,-0.3377,-0.3377,-0.339,-0.3342,-0.3365,-0.332,-0.3332,-0.3305,-0.3303,-0.3301,-0.3305,-0.3275,-0.3261,-0.3276,-0.3288,-0.3275,-0.326,-0.3268,-0.326,-0.3228,-0.3241,-0.3367,-0.3385,-0.3403,-0.3417,-0.3226,-0.3225,-0.3109,-0.3108,-0.3107]}]]